CZ-6A DEB, 55535

Orbit data source: Space-Track

CZ-6A DEB, 55535 is space debris in SSO originally from a launch on Fri, 11 Nov 2022 UTC launched from the Taiyaun Space Center, China (TSC). Debris objects in space refer to the collection of defunct objects orbiting the Earth. Examples of debris include non-operational satellites, rocket bodies, and fragments generated from explosions, collisions, or faulty payload assembly.

Loading next visibility...
Identifier
55535, 2022-151YH
Orbit
SSO
Country
Flag of CNCN / PRC
Related business
Manufacturer
SAST
Mission
Spacecraft
Bus & Motor
Unknown
Mass
Unknown
Launch date (UTC)
2022-11-11 (3 years ago)
Launch vehicle
Unknown
Launch site
Taiyaun Space Center, China (TSC)
Object type
Payload
Rocket body
Debris
Shape & HBR
Unknown shape, 0.1 m
Radar Cross Section
Small (<0.1 m²)

Expand to show TLE details & history
Last TLE update: 1 day ago

TLE from 1 day ago
0 CZ-6A DEB
1 55535U 22151YH  25352.63301130  .00010652  00000-0  17658-2 0  9991
2 55535  98.6438  46.3859 0078747 119.6218 241.2859 14.68366801158647
Epoch: 2025-12-18T15:11Z
TLE epoch observation values (Epoch: 2025-12-18T15:11:32.176Z)
Latitude
-0.00004°
Longitude
91.01612°
Altitude
696.261 km
Speed
7.494 km/s
True Right ascension
03h 05m 32s
True Declination
0° 00' 00"
Sunlit
Object was in full shadow at epoch
Visualization orbit readout
Latitude
Unknown
Longitude
Unknown
Altitude
Unknown
Speed
Unknown
Apparent Right ascension
Unknown
Apparent Declination
Unknown
Sunlit
N/A
Visualization observer readout
Local Sidereal Time
15:01:13
Azimuth
Unknown
Elevation
Unknown
Doppler factor
Unknown
Orbital elements
Apogee altitude
718.827 km
Perigee altitude
607.928 km
Semi-major axis
7,041.515 km
Eccentricity
0.00787
Inclination
98.6438°
RAAN
46.3859°
Arg. of periapsis
119.6218°
True anomaly
240.49824°
Mean anomaly
241.2859°
Eccentric anomaly
240.8917°
Mean motion
3.6732 °/min
Orbital period
98.01 mins
BSTAR
0.0017658
Loading maneuver chart data...
Computing Atmospheric mass density...

Documentation

Showing up to 5 results
|